2020-09-13 00:07:43 r, 19.48m,0000000001Hz,0000338817c,0000000.735s, 024.8C,00002191
2020-09-13 00:17:42 r, 19.69m,0000000001Hz,0000408160c,0000000.886s, 024.8C,00002191
2020-09-13 00:27:41 r, 20.22m,0000000000Hz,0000670404c,0000001.455s, 024.8C,00002191
2020-09-13 00:37:44 r, 19.58m,0000000001Hz,0000368691c,0000000.800s, 025.1C,00002191
2020-09-13 00:47:42 r, 20.36m,0000000001Hz,0000757454c,0000001.644s, 025.1C,00002191
2020-09-13 00:57:41 r, 19.63m,0000000001Hz,0000387051c,0000000.840s, 024.8C,00002191
2020-09-13 01:07:44 r, 19.84m,0000000001Hz,0000471217c,0000001.023s, 024.8C,00002191
2020-09-13 01:17:42 r, 19.40m,0000000002Hz,0000315598c,0000000.685s, 024.8C,00002191
2020-09-13 01:27:41 r, 19.33m,0000000001Hz,0000296426c,0000000.643s, 024.4C,00002191
2020-09-13 01:37:42 r, 19.37m,0000000002Hz,0000306078c,0000000.664s, 024.4C,00002191
2020-09-13 01:47:43 r, 19.53m,0000000002Hz,0000356100c,0000000.773s, 024.1C,00002191
2020-09-13 01:57:41 r, 19.45m,0000000001Hz,0000329133c,0000000.714s, 023.8C,00002191
2020-09-13 02:07:43 r, 19.55m,0000000001Hz,0000360037c,0000000.781s, 024.1C,00002191
2020-09-13 02:17:42 r, 19.54m,0000000001Hz,0000357975c,0000000.777s, 024.1C,00002191
2020-09-13 02:27:41 r, 19.48m,0000000001Hz,0000337173c,0000000.732s, 024.4C,00002191
2020-09-13 02:37:42 r, 19.58m,0000000001Hz,0000370716c,0000000.805s, 024.4C,00002191
2020-09-13 02:47:44 r, 19.61m,0000000001Hz,0000379175c,0000000.823s, 024.1C,00002191
2020-09-13 02:57:41 r, 19.64m,0000000001Hz,0000390045c,0000000.846s, 024.1C,00002191
2020-09-13 03:07:44 r, 19.59m,0000000002Hz,0000374333c,0000000.812s, 023.8C,00002191
2020-09-13 03:17:42 r, 19.64m,0000000001Hz,0000389630c,0000000.846s, 023.5C,00002191
2020-09-13 03:27:41 r, 19.66m,0000000001Hz,0000398470c,0000000.865s, 023.5C,00002191
2020-09-13 03:37:44 r, 19.67m,0000000001Hz,0000403432c,0000000.876s, 023.2C,00002191
2020-09-13 03:47:42 r, 19.82m,0000000001Hz,0000459900c,0000000.998s, 023.2C,00002191
2020-09-13 03:57:41 r, 19.40m,0000000001Hz,0000315951c,0000000.686s, 023.2C,00002191
2020-09-13 04:07:42 r, 19.30m,0000000002Hz,0000288312c,0000000.626s, 023.2C,00002191
2020-09-13 04:17:44 r, 19.44m,0000000002Hz,0000327342c,0000000.710s, 023.2C,00002191
2020-09-13 04:27:41 r, 19.53m,0000000002Hz,0000355917c,0000000.772s, 022.8C,00002191
2020-09-13 04:37:43 r, 19.37m,0000000001Hz,0000307051c,0000000.666s, 022.8C,00002191
2020-09-13 04:47:42 r, 19.54m,0000000002Hz,0000358236c,0000000.777s, 022.8C,00002191
2020-09-13 04:57:41 r, 19.57m,0000000001Hz,0000365609c,0000000.793s, 022.5C,00002191
2020-09-13 05:07:44 r, 19.12m,0000000002Hz,0000242737c,0000000.527s, 022.5C,00002191
2020-09-13 05:17:42 r, 19.57m,0000000001Hz,0000365651c,0000000.794s, 022.2C,00002191
2020-09-13 05:27:41 r, 19.48m,0000000001Hz,0000339016c,0000000.736s, 022.2C,00002191
2020-09-13 05:37:44 r, 19.74m,0000000001Hz,0000431869c,0000000.937s, 022.2C,00002191
2020-09-13 05:47:42 r, 19.36m,0000000001Hz,0000304412c,0000000.661s, 021.9C,00002191
2020-09-13 05:57:41 r, 18.81m,0000000002Hz,0000181830c,0000000.395s, 021.9C,00002191
2020-09-13 06:07:41 r, 17.41m,0000000009Hz,0000049940c,0000000.108s, 021.5C,00002191
2020-09-13 06:17:43 r, 15.77m,0000000041Hz,0000011120c,0000000.024s, 021.2C,00002191
2020-09-13 06:27:41 r, 13.83m,0000000247Hz,0000000000c,0000000.000s, 021.2C,00002191
2020-09-13 06:37:41 r, 11.70m,0000001768Hz,0000000000c,0000000.000s, 021.2C,00002191
2020-09-13 06:47:44 r, 09.89m,0000009350Hz,0000000000c,0000000.000s, 020.9C,00002191
2020-09-13 06:57:41 r, 08.35m,0000038723Hz,0000000000c,0000000.000s, 020.6C,00002191
2020-09-13 07:07:41 r, 07.34m,0000098031Hz,0000000000c,0000000.000s, 020.3C,00002191
2020-09-13 07:17:44 r, 06.69m,0000178708Hz,0000000000c,0000000.000s, 019.9C,00002191
2020-09-13 07:27:41 r, 06.22m,0000275178Hz,0000000000c,0000000.000s, 019.6C,00002191
2020-09-13 07:37:41 r, 05.89m,0000372120Hz,0000000000c,0000000.000s, 019.9C,00002191
2020-09-13 07:47:42 r, 00.00m,0000475473Hz,0000000000c,0000000.000s, 020.9C,00002191
2020-09-13 07:57:41 r, 00.00m,0000585096Hz,0000000000c,0000000.000s, 021.9C,00002191
2020-09-13 08:07:41 r, 00.00m,0000597001Hz,0000000000c,0000000.000s, 023.2C,00002191
2020-09-13 08:17:42 r, 00.00m,0000596811Hz,0000000000c,0000000.000s, 024.1C,00002191
2020-09-13 08:27:41 r, 00.00m,0000596642Hz,0000000000c,0000000.000s, 025.1C,00002191
2020-09-13 08:37:41 r, 00.00m,0000596633Hz,0000000000c,0000000.000s, 025.7C,00002191
2020-09-13 08:47:42 r, 00.00m,0000596555Hz,0000000000c,0000000.000s, 026.4C,00002191
2020-09-13 08:57:41 r, 00.00m,0000596480Hz,0000000000c,0000000.000s, 027.0C,00002191
2020-09-13 09:07:41 r, 00.00m,0000596463Hz,0000000000c,0000000.000s, 027.7C,00002191
2020-09-13 09:17:44 r, 00.00m,0000596384Hz,0000000000c,0000000.000s, 028.6C,00002191
2020-09-13 09:27:41 r, 00.00m,0000596414Hz,0000000000c,0000000.000s, 028.6C,00002191
2020-09-13 09:37:41 r, 00.00m,0000596408Hz,0000000000c,0000000.000s, 028.3C,00002191
2020-09-13 09:47:42 r, 00.00m,0000596353Hz,0000000000c,0000000.000s, 028.6C,00002191
2020-09-13 09:57:43 r, 00.00m,0000596230Hz,0000000000c,0000000.000s, 029.6C,00002191
2020-09-13 10:07:41 r, 00.00m,0000596138Hz,0000000000c,0000000.000s, 029.9C,00002191
2020-09-13 10:17:43 r, 00.00m,0000595927Hz,0000000000c,0000000.000s, 030.6C,00002191
2020-09-13 10:27:42 r, 00.00m,0000595795Hz,0000000000c,0000000.000s, 031.5C,00002191
2020-09-13 10:37:41 r, 00.00m,0000595903Hz,0000000000c,0000000.000s, 031.2C,00002191
2020-09-13 10:47:42 r, 00.00m,0000595913Hz,0000000000c,0000000.000s, 030.9C,00002191
2020-09-13 10:57:44 r, 00.00m,0000595737Hz,0000000000c,0000000.000s, 031.9C,00002191
2020-09-13 11:07:41 r, 00.00m,0000595470Hz,0000000000c,0000000.000s, 033.8C,00002191
2020-09-13 11:17:44 r, 00.00m,0000595732Hz,0000000000c,0000000.000s, 032.5C,00002191
2020-09-13 11:27:42 r, 00.00m,0000595781Hz,0000000000c,0000000.000s, 031.5C,00002191
2020-09-13 11:37:41 r, 00.00m,0000595845Hz,0000000000c,0000000.000s, 031.2C,00002191
2020-09-13 11:47:44 r, 00.00m,0000595757Hz,0000000000c,0000000.000s, 031.5C,00002191
2020-09-13 11:57:42 r, 00.00m,0000595909Hz,0000000000c,0000000.000s, 030.9C,00002191
2020-09-13 12:07:41 r, 00.00m,0000595961Hz,0000000000c,0000000.000s, 030.2C,00002191
2020-09-13 12:17:42 r, 00.00m,0000596027Hz,0000000000c,0000000.000s, 030.6C,00002191
2020-09-13 12:27:43 r, 00.00m,0000595853Hz,0000000000c,0000000.000s, 030.6C,00002191
2020-09-13 12:37:41 r, 00.00m,0000595692Hz,0000000000c,0000000.000s, 031.5C,00002191
2020-09-13 12:47:43 r, 00.00m,0000595707Hz,0000000000c,0000000.000s, 032.2C,00002191
2020-09-13 12:57:42 r, 00.00m,0000595452Hz,0000000000c,0000000.000s, 033.5C,00002191
2020-09-13 13:07:41 r, 00.00m,0000595568Hz,0000000000c,0000000.000s, 033.5C,00002191
2020-09-13 13:17:44 r, 00.00m,0000595231Hz,0000000000c,0000000.000s, 035.1C,00002191
2020-09-13 13:27:42 r, 00.00m,0000595261Hz,0000000000c,0000000.000s, 035.4C,00002191
2020-09-13 13:37:41 r, 00.00m,0000595151Hz,0000000000c,0000000.000s, 036.7C,00002191
2020-09-13 13:47:44 r, 00.00m,0000595200Hz,0000000000c,0000000.000s, 036.7C,00002191
2020-09-13 13:57:42 r, 00.00m,0000595245Hz,0000000000c,0000000.000s, 035.7C,00002191
2020-09-13 14:07:41 r, 00.00m,0000595246Hz,0000000000c,0000000.000s, 035.7C,00002191
2020-09-13 14:17:42 r, 00.00m,0000595002Hz,0000000000c,0000000.000s, 037.0C,00002191
2020-09-13 14:27:43 r, 00.00m,0000594947Hz,0000000000c,0000000.000s, 038.0C,00002191
2020-09-13 14:37:41 r, 00.00m,0000594896Hz,0000000000c,0000000.000s, 038.3C,00002191
2020-09-13 14:47:43 r, 00.00m,0000594720Hz,0000000000c,0000000.000s, 039.6C,00002191
2020-09-13 14:57:42 r, 00.00m,0000595067Hz,0000000000c,0000000.000s, 038.0C,00002191
2020-09-13 15:07:41 r, 00.00m,0000595236Hz,0000000000c,0000000.000s, 036.4C,00002191
2020-09-13 15:17:42 r, 00.00m,0000595118Hz,0000000000c,0000000.000s, 036.4C,00002191
2020-09-13 15:27:44 r, 00.00m,0000595008Hz,0000000000c,0000000.000s, 037.7C,00002191
2020-09-13 15:37:41 r, 00.00m,0000595202Hz,0000000000c,0000000.000s, 037.3C,00002191
2020-09-13 15:47:44 r, 00.00m,0000595213Hz,0000000000c,0000000.000s, 036.0C,00002191
2020-09-13 15:57:42 r, 00.00m,0000595133Hz,0000000000c,0000000.000s, 037.0C,00002191
2020-09-13 16:07:41 r, 00.00m,0000595140Hz,0000000000c,0000000.000s, 036.7C,00002191
2020-09-13 16:17:44 r, 00.00m,0000595241Hz,0000000000c,0000000.000s, 036.0C,00002191
2020-09-13 16:27:42 r, 00.00m,0000595326Hz,0000000000c,0000000.000s, 035.4C,00002191
2020-09-13 16:37:41 r, 00.00m,0000595308Hz,0000000000c,0000000.000s, 035.4C,00002191
2020-09-13 16:47:42 r, 00.00m,0000595479Hz,0000000000c,0000000.000s, 033.8C,00002191
2020-09-13 16:57:44 r, 00.00m,0000595523Hz,0000000000c,0000000.000s, 033.1C,00002191
2020-09-13 17:07:41 r, 00.00m,0000595529Hz,0000000000c,0000000.000s, 033.1C,00002191
2020-09-13 17:17:43 r, 00.00m,0000595548Hz,0000000000c,0000000.000s, 032.8C,00002191
2020-09-13 17:27:42 r, 00.00m,0000595757Hz,0000000000c,0000000.000s, 032.2C,00002191
2020-09-13 17:37:41 r, 00.00m,0000595857Hz,0000000000c,0000000.000s, 031.9C,00002191
2020-09-13 17:47:44 r, 00.00m,0000595861Hz,0000000000c,0000000.000s, 031.2C,00002191
2020-09-13 17:57:42 r, 00.00m,0000596014Hz,0000000000c,0000000.000s, 030.2C,00002191
2020-09-13 18:07:41 r, 00.00m,0000596119Hz,0000000000c,0000000.000s, 029.3C,00002191
2020-09-13 18:17:44 r, 00.00m,0000596117Hz,0000000000c,0000000.000s, 029.3C,00002191
2020-09-13 18:27:42 r, 00.00m,0000596172Hz,0000000000c,0000000.000s, 028.6C,00002191
2020-09-13 18:37:42 r, 00.00m,0000596160Hz,0000000000c,0000000.000s, 028.3C,00002191
2020-09-13 18:47:42 r, 00.00m,0000596214Hz,0000000000c,0000000.000s, 027.7C,00002191
2020-09-13 18:57:43 r, 00.00m,0000582912Hz,0000000000c,0000000.000s, 027.0C,00002191
2020-09-13 19:07:41 r, 00.00m,0000433355Hz,0000000000c,0000000.000s, 026.4C,00002191
2020-09-13 19:17:43 r, 06.27m,0000263990Hz,0000000000c,0000000.000s, 025.7C,00002191
2020-09-13 19:27:42 r, 06.71m,0000175989Hz,0000000000c,0000000.000s, 025.1C,00002191
2020-09-13 19:37:41 r, 07.44m,0000089460Hz,0000000000c,0000000.000s, 024.4C,00002191
2020-09-13 19:47:42 r, 08.38m,0000037480Hz,0000000000c,0000000.000s, 023.8C,00002191
2020-09-13 19:57:44 r, 09.88m,0000009507Hz,0000000000c,0000000.000s, 023.2C,00002191
2020-09-13 20:07:41 r, 11.81m,0000001594Hz,0000000000c,0000000.000s, 022.5C,00002191
2020-09-13 20:17:44 r, 13.85m,0000000243Hz,0000000000c,0000000.000s, 021.9C,00002191
2020-09-13 20:27:42 r, 15.96m,0000000035Hz,0000013291c,0000000.029s, 021.5C,00002191
2020-09-13 20:37:42 r, 17.70m,0000000007Hz,0000065880c,0000000.143s, 020.9C,00002191
2020-09-13 20:47:42 r, 18.86m,0000000003Hz,0000191584c,0000000.416s, 020.6C,00002191
2020-09-13 20:57:43 r, 19.50m,0000000001Hz,0000345531c,0000000.750s, 020.3C,00002191
2020-09-13 21:07:41 r, 19.75m,0000000001Hz,0000437028c,0000000.948s, 019.9C,00002191
2020-09-13 21:17:43 r, 19.83m,0000000001Hz,0000467209c,0000001.014s, 019.9C,00002191
2020-09-13 21:27:42 r, 19.86m,0000000000Hz,0000477992c,0000001.037s, 019.9C,00002191
2020-09-13 21:37:42 r, 19.86m,0000000001Hz,0000476082c,0000001.033s, 019.6C,00002191
2020-09-13 21:47:42 r, 19.88m,0000000001Hz,0000485828c,0000001.054s, 019.3C,00002191
2020-09-13 21:57:44 r, 19.92m,0000000001Hz,0000503846c,0000001.093s, 019.0C,00002191
2020-09-13 22:07:41 r, 19.90m,0000000001Hz,0000499126c,0000001.083s, 019.0C,00002191
2020-09-13 22:17:44 r, 19.89m,0000000001Hz,0000492389c,0000001.069s, 019.0C,00002191
2020-09-13 22:27:42 r, 19.85m,0000000001Hz,0000474233c,0000001.029s, 019.0C,00002191
2020-09-13 22:37:42 r, 19.86m,0000000001Hz,0000476818c,0000001.035s, 018.6C,00002191
2020-09-13 22:47:42 r, 19.87m,0000000000Hz,0000482866c,0000001.048s, 018.6C,00002191
2020-09-13 22:57:42 r, 19.90m,0000000001Hz,0000495179c,0000001.075s, 018.3C,00002191
2020-09-13 23:07:42 r, 19.88m,0000000001Hz,0000485866c,0000001.054s, 018.0C,00002191
2020-09-13 23:17:41 r, 19.89m,0000000001Hz,0000492475c,0000001.069s, 018.0C,00002191
2020-09-13 23:27:43 r, 19.94m,0000000001Hz,0000512599c,0000001.112s, 018.0C,00002191
2020-09-13 23:37:42 r, 19.97m,0000000001Hz,0000529890c,0000001.150s, 017.7C,00002191
2020-09-13 23:47:42 r, 19.97m,0000000001Hz,0000530104c,0000001.150s, 017.7C,00002191
2020-09-13 23:57:44 r, 20.01m,0000000001Hz,0000551886c,0000001.198s, 017.7C,00002191
